Date String (YYYY-MM-DD hh:mm:ss) UTC,Instrument flags,Ambient pressure (hPa),Sample flow (lpm),Bypass flow (lpm),Sample temperature (°C),Ambient temperature (°C),ASC tube jacket temperature (°C),LED temperature (°C),Box temperature (°C),Sample RH (%),Span deviation,Mass concentration (μg/m³),Mass concentration (μg/m³),Mass concentration (μg/m³)
DateTimeUTC,F1_M11,P_M11,Q1_M11,Q2_M11,T1_M11,T2_M11,T3_M11,T4_M11,T5_M11,U1_M11,ZSPAN_M11,X0_M11,X2_M11,X1_M11
2022-12-22 09:00:00,,0825.5,5.01,0.00,21.4,18.3,00.0,30.5,22.1,03.1,0000.3,0008.49,0004.59,0003.96
2022-12-22 09:01:00,,0825.3,5.01,0.00,21.3,18.7,00.0,30.3,22.1,03.1,0000.4,0008.36,0004.53,0003.92
2022-12-22 09:02:00,,0825.3,5.02,0.00,21.3,19.6,00.0,30.2,22.4,03.1,0000.1,0008.25,0004.48,0003.87
2022-12-22 09:03:00,,0825.4,4.94,0.00,21.3,20.3,00.0,30.2,22.6,03.1,-000.1,0008.22,0004.45,0003.83
2022-12-22 09:04:00,,0825.4,5.04,0.00,21.4,20.8,00.0,30.1,22.7,03.1,0000.0,0008.42,0004.40,0003.80
2022-12-22 09:05:00,,0825.5,5.01,0.00,21.4,21.0,00.0,30.1,22.8,03.1,0000.5,0008.48,0004.37,0003.77
2022-12-22 09:06:00,,0825.6,4.99,0.00,21.5,21.2,00.0,30.1,22.9,03.1,0000.5,0008.51,0004.35,0003.73
2022-12-22 09:07:00,,0825.7,5.04,0.00,21.5,21.4,00.0,30.1,23.0,03.1,0000.5,0008.36,0004.29,0003.68
2022-12-22 09:08:00,,0825.8,4.97,0.00,21.5,21.4,00.0,30.1,23.0,03.1,0000.4,0008.42,0004.28,0003.63
2022-12-22 09:09:00,,0825.7,5.03,0.00,21.6,21.6,00.0,30.1,23.1,03.1,0001.1,0008.40,0004.23,0003.58
2022-12-22 09:10:00,,0825.5,4.96,0.00,21.6,21.6,00.0,30.1,23.1,03.0,0001.4,0008.42,0004.24,0003.56
2022-12-22 09:11:00,,0825.4,5.04,0.00,21.7,21.7,00.0,30.1,23.2,03.0,0001.9,0008.48,0004.25,0003.56
2022-12-22 09:12:00,,0825.3,4.96,0.00,21.7,21.8,00.0,30.2,23.2,03.0,0001.0,0008.40,0004.21,0003.56
2022-12-22 09:13:00,,0825.3,5.05,0.00,21.8,21.7,00.0,30.2,23.3,03.0,0000.0,0008.33,0004.18,0003.55
2022-12-22 09:14:00,,0825.3,5.00,0.00,21.8,21.7,00.0,30.2,23.3,03.0,0000.4,0008.22,0004.15,0003.55
2022-12-22 09:15:00,,0825.3,4.98,0.00,21.8,21.6,00.0,30.2,23.3,03.0,0000.8,0007.86,0004.11,0003.53
2022-12-22 09:16:00,,0825.2,5.03,0.00,21.9,21.6,00.0,30.2,23.3,03.0,0001.0,0007.75,0004.11,0003.53
2022-12-22 09:17:00,,0825.3,4.97,0.00,21.9,21.7,00.0,30.3,23.3,03.0,0001.5,0007.71,0004.11,0003.52
2022-12-22 09:18:00,,0825.5,5.00,0.00,21.9,21.6,00.0,30.3,23.3,03.0,0001.6,0007.68,0004.11,0003.51
2022-12-22 09:19:00,,0825.6,5.03,0.00,21.9,21.7,00.0,30.3,23.3,03.0,0001.3,0007.66,0004.09,0003.52
2022-12-22 09:20:00,,0825.7,4.98,0.00,21.9,21.6,00.0,30.3,23.4,02.9,0001.3,0007.62,0004.10,0003.53
2022-12-22 09:21:00,,0825.7,4.98,0.00,22.0,21.6,00.0,30.3,23.4,02.9,0001.3,0007.48,0004.08,0003.53
2022-12-22 09:22:00,,0825.6,5.03,0.00,22.0,21.6,00.0,30.4,23.4,02.9,0001.1,0007.46,0004.09,0003.54
2022-12-22 09:23:00,,0825.8,5.01,0.00,22.0,21.5,00.0,30.4,23.4,02.9,0001.1,0007.42,0004.08,0003.54
2022-12-22 09:24:00,,0826.0,4.96,0.00,22.0,21.5,00.0,30.4,23.4,02.9,0000.8,0007.48,0004.10,0003.55
2022-12-22 09:25:00,,0825.9,5.02,0.00,22.0,21.5,00.0,30.4,23.4,02.9,0001.1,0007.53,0004.11,0003.54
2022-12-22 09:26:00,,0825.7,5.03,0.00,22.0,21.5,00.0,30.4,23.4,02.9,0002.1,0007.72,0004.18,0003.55
2022-12-22 09:27:00,,0825.5,4.95,0.00,22.0,21.5,00.0,30.4,23.4,02.9,0001.9,0008.05,0004.21,0003.56
2022-12-22 09:28:00,,0825.6,5.02,0.00,22.0,21.4,00.0,30.4,23.4,02.9,0001.8,0008.01,0004.19,0003.55
2022-12-22 09:29:00,,0825.6,5.03,0.00,22.0,21.5,00.0,30.4,23.5,02.9,0001.9,0008.06,0004.22,0003.56
2022-12-22 09:30:00,,0825.7,4.95,0.00,22.1,21.5,00.0,30.4,23.4,02.9,0002.8,0007.99,0004.20,0003.56
2022-12-22 09:31:00,,0825.7,5.04,0.00,22.1,21.6,00.0,30.4,23.5,02.9,0002.8,0007.93,0004.19,0003.56
2022-12-22 09:32:00,,0825.7,5.03,0.00,22.1,21.6,00.0,30.5,23.5,02.9,0002.9,0008.10,0004.22,0003.57
2022-12-22 09:33:00,,0825.7,4.95,0.00,22.1,21.6,00.0,30.5,23.5,02.9,0002.5,0008.30,0004.22,0003.57
2022-12-22 09:34:00,,0825.7,5.02,0.00,22.1,21.7,00.0,30.5,23.5,02.9,0002.4,0008.39,0004.24,0003.59
2022-12-22 09:35:00,,0825.7,5.03,0.00,22.1,21.7,00.0,30.5,23.5,02.9,0002.7,0008.33,0004.23,0003.59
2022-12-22 09:36:00,,0825.6,4.95,0.00,22.1,21.8,00.0,30.5,23.6,02.9,0001.9,0008.38,0004.25,0003.61
2022-12-22 09:37:00,,0825.7,5.01,0.00,22.1,21.8,00.0,30.5,23.6,02.9,0001.9,0008.24,0004.22,0003.61
2022-12-22 09:38:00,,0825.6,5.03,0.00,22.2,21.7,00.0,30.5,23.6,02.9,0003.1,0008.06,0004.21,0003.60
2022-12-22 09:39:00,,0825.6,4.99,0.00,22.2,21.7,00.0,30.6,23.6,02.9,0003.7,0008.56,0004.23,0003.60
2022-12-22 09:40:00,,0825.6,4.97,0.00,22.2,21.7,00.0,30.6,23.6,02.9,0001.1,0008.56,0004.20,0003.60
2022-12-22 09:41:00,,0825.7,5.04,0.00,22.2,21.7,00.0,30.6,23.6,02.9,0000.0,0008.64,0004.23,0003.62
2022-12-22 09:42:00,,0825.9,5.01,0.00,22.2,21.7,00.0,30.6,23.6,02.9,0000.0,0008.64,0004.24,0003.63
2022-12-22 09:43:00,,0825.9,4.98,0.00,22.2,21.7,00.0,30.6,23.6,02.9,0000.0,0008.43,0004.19,0003.61
2022-12-22 09:44:00,,0825.9,4.99,0.00,22.2,21.8,00.0,30.6,23.6,02.9,0000.0,0008.22,0004.17,0003.61
2022-12-22 09:45:00,,0825.9,5.01,0.00,22.2,21.8,00.0,30.6,23.7,02.9,0000.0,0008.19,0004.18,0003.61
2022-12-22 09:46:00,,0826.0,5.02,0.00,22.2,21.8,00.0,30.6,23.7,02.9,0000.8,0008.23,0004.19,0003.61
2022-12-22 09:47:00,,0825.9,4.95,0.00,22.3,21.8,00.0,30.6,23.7,02.9,0002.8,0008.29,0004.18,0003.62
2022-12-22 09:48:00,,0825.8,5.03,0.00,22.3,21.8,00.0,30.6,23.7,02.9,0000.6,0008.27,0004.18,0003.62
2022-12-22 09:49:00,,0825.7,5.03,0.00,22.3,21.7,00.0,30.7,23.6,02.9,0001.1,0008.17,0004.17,0003.63
2022-12-22 09:50:00,,0826.2,4.95,0.00,22.3,21.7,00.0,30.7,23.6,02.9,0000.7,0007.72,0004.16,0003.64
2022-12-22 09:51:00,,0825.8,5.02,0.00,22.3,21.7,00.0,30.7,23.6,02.9,0001.3,0007.59,0004.18,0003.66
2022-12-22 09:52:00,,0825.7,5.02,0.00,22.3,21.7,00.0,30.7,23.6,02.9,0001.8,0007.52,0004.17,0003.67
2022-12-22 09:53:00,,0825.6,4.97,0.00,22.3,21.7,00.0,30.7,23.6,02.9,0001.6,0007.47,0004.16,0003.67
2022-12-22 09:54:00,,0825.6,5.00,0.00,22.3,21.7,00.0,30.7,23.6,02.9,0002.3,0007.59,0004.21,0003.69
2022-12-22 09:55:00,,0825.7,5.04,0.00,22.3,21.6,00.0,30.7,23.6,02.9,0002.5,0007.63,0004.24,0003.70
2022-12-22 09:56:00,,0825.7,4.99,0.00,22.3,21.6,00.0,30.7,23.6,02.9,0002.5,0007.68,0004.26,0003.70
2022-12-22 09:57:00,,0825.6,4.98,0.00,22.3,21.6,00.0,30.7,23.6,02.9,0002.5,0007.76,0004.28,0003.71
2022-12-22 09:58:00,,0825.7,5.01,0.00,22.3,21.7,00.0,30.7,23.7,02.9,0002.8,0007.68,0004.27,0003.71
2022-12-22 09:59:00,,0826.0,5.01,0.00,22.3,21.7,00.0,30.7,23.6,02.9,0002.9,0008.17,0004.29,0003.71
